Weather History for Rock Springs, WY

Change the Weather History Date:

Sunday, January 6, 2013

  Actual Average Record
Temperature  
Mean Temperature 6 °F 21 °F  
Max Temperature 15 °F 30 °F 48 °F (1969)
Min Temperature -3 °F 13 °F -25 °F (1979)
Degree Days  
Heating Degree Days 59 44  
Month to date heating degree days 352 264  
Since 1 July heating degree days 3276 3616  
Cooling Degree Days 0 0  
Month to date cooling degree days 0 0  
Year to date cooling degree days 0 0  
Moisture  
Dew Point 2 °F    
Average Humidity 83    
Maximum Humidity 95    
Minimum Humidity 70    
Precipitation  
Precipitation 0.00 in 0.01 in 0.11 in (1980)
Month to date precipitation 0.00 0.08  
Year to date precipitation 0.00 0.08  
Sea Level Pressure  
Sea Level Pressure 30.38 in    
Wind  
Wind Speed 2 mph (SW)    
Max Wind Speed 10 mph    
Max Gust Speed 12 mph    
Visibility 10 miles    
Events      
T = Trace of Precipitation, MM = Missing Value Source: NWS Daily Summary

Daily Weather History Graph

Daily Weather History Graph

Search for Another Location

Airport:

Trip Planner

Search our weather history database for the weather conditions in past years. The results will help you decide how hot, cold, wet, or windy it might be!

Date:

Astronomy

Jan. 06, 2013 Rise Set
Actual Time 7:42 AM MST 5:01 PM MST
Civil Twilight 7:11 AM MST 5:32 PM MST
Nautical Twilight 6:37 AM MST 6:07 PM MST
Astronomical Twilight 6:03 AM MST 6:41 PM MST
Moon 1:59 AM MST (1/6) 12:32 PM MST (1/6)
Length of Visible Light 10h 21m
Length of Day
9h 18m
Waning Crescent, 32% of the Moon is Illuminated
Jan 6
Waning Crescent
Jan 11
New
Jan 18
First Quarter
Jan 26
Full
Feb 3
Last Quarter

Hourly Weather History & Observations

Time (MST) Temp. Windchill Dew Point Humidity Pressure Visibility Wind Dir Wind Speed Gust Speed Precip Events Conditions
12:54 AM 10.9 °F 4.7 °F 5.0 °F 77% 30.42 in 10.0 mi SE 3.5 mph - N/A   Clear
1:54 AM 6.1 °F - 1.0 °F 80% 30.43 in 10.0 mi Calm Calm - N/A   Clear
2:54 AM 3.9 °F - -0.9 °F 80% 30.43 in 10.0 mi Calm Calm - N/A   Clear
3:54 AM 3.0 °F - -0.9 °F 84% 30.42 in 10.0 mi Calm Calm - N/A   Clear
4:54 AM 5.0 °F - -0.0 °F 80% 30.41 in 10.0 mi Calm Calm - N/A   Clear
5:54 AM -0.0 °F -11.6 °F -2.9 °F 88% 30.43 in 10.0 mi West 5.8 mph - N/A   Clear
6:54 AM -0.0 °F -9.9 °F -4.0 °F 83% 30.46 in 10.0 mi West 4.6 mph - N/A   Clear
7:54 AM 1.0 °F - -4.0 °F 79% 30.44 in 10.0 mi Calm Calm - N/A   Clear
8:54 AM 1.0 °F - -2.9 °F 83% 30.44 in 10.0 mi Calm Calm - N/A   Clear
9:54 AM 1.9 °F - -0.9 °F 88% 30.45 in 10.0 mi Calm Calm - N/A   Clear
10:54 AM 3.0 °F - -0.0 °F 87% 30.44 in 10.0 mi Calm Calm - N/A   Clear
11:54 AM 8.1 °F - 3.9 °F 83% 30.36 in 10.0 mi Calm Calm - N/A   Clear
12:54 PM 10.9 °F - 3.9 °F 73% 30.32 in 10.0 mi Calm Calm - N/A   Clear
1:54 PM 12.9 °F - 5.0 °F 71% 30.30 in 10.0 mi Calm Calm - N/A   Clear
2:54 PM 12.0 °F 5.9 °F 5.0 °F 73% 30.31 in 10.0 mi South 3.5 mph - N/A   Clear
3:54 PM 12.9 °F 6.9 °F 6.1 °F 74% 30.31 in 10.0 mi SSW 3.5 mph - N/A   Scattered Clouds
4:54 PM 12.9 °F - 6.1 °F 74% 30.29 in 10.0 mi Calm Calm - N/A   Mostly Cloudy
5:54 PM 12.9 °F - 6.1 °F 74% 30.30 in 10.0 mi Calm Calm - N/A   Mostly Cloudy
6:54 PM 10.9 °F -0.8 °F 3.9 °F 73% 30.32 in 10.0 mi West 8.1 mph - N/A   Clear
8:54 PM 9.0 °F 0.6 °F 3.9 °F 80% 30.34 in 10.0 mi SW 4.6 mph - N/A   Clear
9:54 PM 6.1 °F -6.8 °F 1.9 °F 83% 30.35 in 10.0 mi West 8.1 mph - N/A   Clear
10:54 PM 6.1 °F -2.8 °F 1.9 °F 83% 30.35 in 10.0 mi WSW 4.6 mph - N/A   Clear
11:54 PM 8.1 °F - 3.0 °F 80% 30.32 in 10.0 mi Calm Calm - N/A   Clear